Location: Unspecified
(0.0000°N, 0.0000°E)
Time: 23:07:27
(UTC+01:00)

SeaSat 1 - Visible Passes

Search period start: 31 October 2014 00:00
Search period end: 10 November 2014 00:00
Orbit: 747 x 749 km, 108.0° (Epoch: 31 October)

Date Brightness Start Highest point End Pass type
(mag) Time Alt. Az. Time Alt. Az. Time Alt. Az.
31 Oct 3.0 05:02:52 10° S 05:06:46 40° SW 05:06:46 40° SW visible
01 Nov 3.7 04:21:21 10° SE 04:24:43 39° ESE 04:24:43 39° ESE visible
02 Nov 5.4 03:42:11 10° E 03:42:40 11° E 03:42:40 11° E visible
02 Nov 3.0 05:17:33 10° S 05:22:03 36° WSW 05:22:31 36° W visible
03 Nov 2.8 04:35:49 10° SSE 04:40:28 60° E 04:40:28 60° E visible
04 Nov 5.0 03:56:11 10° ESE 03:58:25 16° E 03:58:25 16° E visible
04 Nov 3.2 05:32:16 10° S 05:36:35 31° WSW 05:38:16 25° WNW visible
05 Nov 2.6 04:50:18 10° SSE 04:55:12 72° ENE 04:56:13 54° N visible
06 Nov 4.6 04:10:18 10° ESE 04:13:49 20° ENE 04:14:10 20° ENE visible
06 Nov 3.5 05:47:01 10° SSW 05:51:07 27° WSW 05:54:01 16° WNW visible
07 Nov 2.4 05:04:48 10° SSE 05:09:44 84° ENE 05:11:58 33° NNW visible
08 Nov 4.4 04:24:30 10° ESE 04:28:20 23° ENE 04:29:55 20° NE visible
08 Nov 3.7 06:01:48 10° SSW 06:05:38 23° WSW 06:09:28 10° WNW visible
09 Nov 2.3 05:19:19 10° SSE 05:24:15 83° WSW 05:27:43 20° NNW visible
